Location: Pettit
(39.0209°N, 79.7181°W)
Time: 19:59:05
(UTC+00:00)

ACS3 Solar Sail - Pass Details

Date: 25 April 2026
Orbit: 894 x 947 km, 97.2° (Epoch: 12 May)

Event Time Altitude Azimuth Distance (km) Brightness Sun altitude
Rises 05:11:46 0° 27° (NNE) 3,563 5.5 -37.8°
Reaches altitude 10° 05:14:49 10° 43° (NE) 2,626 4.5 -37.8°
Enters shadow 05:16:58 17° 62° (ENE) 2,138 3.8 -37.8°
